DW3384 Weather Reports


time (UTC)temp
F
wind
direction
speed
knots
gust
knots
rain 1hr
in
rain 24hr
in
rain mn
in
humidity
%
barometer
mb
20260504220051 89 261 8.7 20.0 0.00 0.00 0.00 14 993.2
20260504214537 89 265 7.8 17.4 0.00 0.00 0.00 15 993.2
20260504213034 89 250 9.6 22.6 0.00 0.00 0.00 15 993.5
20260504211532 89 292 9.6 16.5 0.00 0.00 0.00 16 993.3
20260504210031 90 306 12.2 22.6 0.00 0.00 0.00 15 993.7
20260504204541 90 246 5.2 17.4 0.00 0.00 0.00 16 993.8
20260504203027 90 221 7.8 16.5 0.00 0.00 0.00 15 994.0
20260504201524 90 215 9.6 14.8 0.00 0.00 0.00 15 994.3
20260504200023 90 257 7.0 11.3 0.00 0.00 0.00 16 994.6
20260504194519 90 279 6.1 13.9 0.00 0.00 0.00 16 995.0
20260504193016 89 259 3.5 16.5 0.00 0.00 0.00 14 995.4
20260504191515 89 286 4.3 13.9 0.00 0.00 0.00 13 995.6
20260504190011 88 202 3.5 9.6 0.00 0.00 0.00 15 995.8
20260504184513 87 260 6.1 12.2 0.00 0.00 0.00 15 996.0
20260504183004 87 284 5.2 13.0 0.00 0.00 0.00 17 996.4
20260504181609 86 298 7.8 13.9 0.00 0.00 0.00 17 996.6
20260504180056 84 317 6.1 12.2 0.00 0.00 0.00 18 997.0
20260504174553 84 323 4.3 13.9 0.00 0.00 0.00 19 997.2
20260504173050 82 296 6.1 13.0 0.00 0.00 0.00 21 997.5
20260504171546 81 287 5.2 9.6 0.00 0.00 0.00 23 997.6
20260504081541 64 201 5.2 16.5 0.00 0.00 0.00 46 1000.6
20260504044543 69 244 7.8 15.6 0.00 0.00 0.00 37 1002.4
20260504043046 70 171 7.0 15.6 0.00 0.00 0.00 36 1002.7
20260504041542 70 229 6.1 18.2 0.00 0.00 0.00 35 1002.8
20260504040042 71 253 7.8 15.6 0.00 0.00 0.00 34 1002.9
20260504034541 71 210 7.8 16.5 0.00 0.00 0.00 33 1002.9
20260504033040 72 175 7.8 13.9 0.00 0.00 0.00 33 1003.0
20260504031540 72 213 5.2 14.8 0.00 0.00 0.00 32 1002.9
20260504030039 73 198 7.0 13.9 0.00 0.00 0.00 31 1002.9
20260504024539 73 195 7.0 13.0 0.00 0.00 0.00 30 1002.9
20260504023039 74 186 7.0 18.2 0.00 0.00 0.00 28 1002.8
20260504021537 75 199 6.1 14.8 0.00 0.00 0.00 28 1002.7
20260504020057 76 174 6.1 13.0 0.00 0.00 0.00 27 1002.6
20260504014553 76 180 6.1 11.3 0.00 0.00 0.00 26 1002.5
20260504013044 77 219 5.2 13.0 0.00 0.00 0.00 24 1002.5
20260504011536 79 207 5.2 11.3 0.00 0.00 0.00 24 1002.4
20260504010040 79 214 7.0 16.5 0.00 0.00 0.00 24 1002.5
20260504004543 80 205 7.0 14.8 0.00 0.00 0.00 23 1002.5
20260504003034 80 181 7.8 15.6 0.00 0.00 0.00 23 1002.6
20260504001541 82 177 8.7 20.0 0.00 0.00 0.00 22 1002.6
20260504000032 82 232 7.0 13.9 0.00 0.00 0.00 20 1002.7
20260503234529 82 180 6.1 16.5 0.00 0.00 0.00 19 1002.9
20260503233027 83 219 11.3 18.2 0.00 0.00 0.00 19 1003.1
20260503231526 82 200 7.0 20.9 0.00 0.00 0.00 20 1003.3
20260503230025 82 226 7.8 17.4 0.00 0.00 0.00 20 1003.5
20260503224522 81 230 5.2 15.6 0.00 0.00 0.00 22 1003.7
20260503223022 82 226 7.8 13.9 0.00 0.00 0.00 20 1003.9
20260503221519 81 188 8.7 17.4 0.00 0.00 0.00 20 1004.1